SL-16 DEB, 22416

Orbit data source: Space-Track

SL-16 DEB, 22416 is space debris in LEO originally from a launch on Fri, 25 Dec 1992 UTC launched from the Tyuratam Missile And Space Complex (TTMTR). Debris objects in space refer to the collection of defunct objects orbiting the Earth. Examples of debris include non-operational satellites, rocket bodies, and fragments generated from explosions, collisions, or faulty payload assembly.

Loading next visibility...
Identifier
22416, 1992-093DH
Orbit
LEO
Country
Flag of CISCIS
Related business
Manufacturer
Unknown
Mission
Spacecraft
Bus & Motor
Unknown
Mass
Unknown
Launch date (UTC)
1992-12-25 (33 years ago)
Launch vehicle
Unknown
Launch site
Tyuratam Missile And Space Complex (TTMTR)
Object type
Payload
Rocket body
Debris
Shape & HBR
Unknown shape, 0.1 m
Radar Cross Section
Small (<0.1 m²)

Expand to show TLE details & history
Last TLE update: 9 hours ago

TLE from 9 hours ago
0 SL-16 DEB
1 22416U 92093DH  25352.90898855  .00000085  00000-0  78331-4 0  9996
2 22416  70.9579 158.3162 0081434 261.4993 251.6730 14.06230685690288
Epoch: 2025-12-18T21:48Z
TLE epoch observation values (Epoch: 2025-12-18T21:48:56.610Z)
Latitude
26.1192°
Longitude
-86.36888°
Altitude
893.946 km
Speed
7.398 km/s
True Right ascension
21h 54m 29s
True Declination
25° 59' 10"
Sunlit
Object was in daylight at epoch
Visualization orbit readout
Latitude
Unknown
Longitude
Unknown
Altitude
Unknown
Speed
Unknown
Apparent Right ascension
Unknown
Apparent Declination
Unknown
Sunlit
N/A
Visualization observer readout
Local Sidereal Time
05:55:09
Azimuth
Unknown
Elevation
Unknown
Doppler factor
Unknown
Orbital elements
Apogee altitude
929.263 km
Perigee altitude
811.21 km
Semi-major axis
7,248.373 km
Eccentricity
0.00814
Inclination
70.9579°
RAAN
158.3162°
Arg. of periapsis
261.4993°
True anomaly
250.79003°
Mean anomaly
251.673°
Eccentric anomaly
251.23123°
Mean motion
3.51708 °/min
Orbital period
102.36 mins
BSTAR
0.000078331
Loading maneuver chart data...
Computing Atmospheric mass density...
Loading historical data...
Loading historical data...
Loading historical data...
Loading historical data...
Loading historical data...
Loading historical data...
Loading historical data...

Documentation

Showing up to 5 results
|